[[{"header":{"parameterUnit":"m.s-1","parameterCategory":1,"la1":30.2991,"la2":30.254,"lo1":-89.0895,"lo2":-89.0444,"dy":0.0017,"dx":0.0017,"nx":28,"ny":28,"refTime":"2025-01-29T09:00:00:Z","depth":0,"parameterNumber":2,"parameterNumberName":"U-component_of_WINDS"},"data":[0,0,0,0,0,0,0,0,0,0,0,0,0,0,0,0,0,0,0,0,0,0,0,0,0,0,0,0,0,0,0,0,0,0,0,0,0,0,0,0,0,0,0,0,0,0,0,0,0,0,0,0,0,0,0,0,0,0,-3.3755,-3.3757,0,-3.3889,-3.3891,-3.3892,-3.3922,-3.3921,-3.392,-3.3919,-3.4056,-3.406,-3.4065,0,0,0,0,0,0,0,0,0,0,0,0,0,-3.3526,-3.353,-3.3755,-3.3757,-3.3759,-3.3889,-3.3891,-3.3893,-3.3922,-3.3921,-3.392,-3.3919,-3.4055,-3.406,-3.4065,0,0,0,0,0,0,0,0,0,0,0,0,0,-3.3639,-3.3531,-3.3755,-3.3789,-3.3793,-3.3889,-3.3891,-3.3893,-3.3922,-3.3921,-3.392,-3.3918,-3.4053,-3.4059,-3.4066,-3.4137,0,0,-3.4087,-3.409,0,0,0,0,0,0,0,0,-3.3632,-3.3647,-3.3782,-3.3787,-3.3792,-3.3888,-3.386,-3.3975,-3.3923,-3.3873,-3.3919,-3.3917,-3.4001,-3.4012,-3.404,-3.4143,-3.4149,-3.4087,-3.4092,-3.4095,-3.4096,0,0,0,0,0,0,0,-3.3625,-3.3642,-3.3808,-3.3784,-3.379,-3.3798,-3.3812,-3.3882,-3.3944,-3.3878,-3.388,-3.3896,-3.4003,-3.4034,-3.4044,-3.4151,-3.4087,-3.4093,-3.4098,-3.41,-3.432,-3.4321,0,0,0,0,0,0,-3.3611,-3.3635,-3.3804,-3.3812,-3.3707,-3.3803,-3.3819,-3.3858,-3.3943,-3.3955,-3.3897,-3.3896,-3.4023,-3.4036,-3.4049,-3.4137,-3.4094,-3.4101,-3.4105,-3.4318,-3.432,-3.4322,0,0,0,0,0,0,-3.3606,-3.3625,-3.3799,-3.3724,-3.3747,-3.3809,-3.3852,-3.3862,-3.3892,-3.3957,-3.3969,-3.3916,-3.4022,-3.4039,-3.4115,-3.4142,-3.4104,-3.411,-3.4316,-3.4319,-3.4321,-3.4314,0,0,0,0,0,0,-3.3599,-3.3623,-3.3651,-3.3725,-3.3751,-3.3862,-3.3854,-3.3865,-3.3904,-3.3905,-3.3979,-3.399,-3.4022,-3.4105,-3.4122,-3.4151,-3.4115,-3.4314,-3.4317,-3.432,-3.4312,-3.4316,-3.4319,0,0,0,0,0,-3.3591,-3.3643,-3.3652,-3.3672,-3.3786,-3.3864,-3.3879,-3.3915,-3.3906,-3.3934,-3.3976,-3.3987,-3.4137,-3.4112,-3.4132,-3.4163,-3.4312,-3.4316,-3.432,-3.431,-3.4315,-3.4319,0,0,0,0,0,0,-3.357,-3.3653,-3.3664,-3.3742,-3.3796,-3.3868,-3.3905,-3.3919,-3.3977,-3.3975,-3.4018,-3.4035,-3.4108,-3.4144,-3.4114,-3.4237,-3.4224,-3.4232,-3.421,-3.4215,-3.4219,-3.4208,-3.4121,0,0,0,0,0,-3.3575,-3.3631,-3.3701,-3.3763,-3.3789,-3.3842,-3.3877,-3.3901,-3.3959,-3.3981,-3.4029,-3.4084,-3.4144,-3.4182,-3.424,-3.4318,-3.4335,-3.435,-3.4353,-3.4356,-3.4362,-3.4406,-3.4413,-3.4335,-3.4335,-3.4335,0,0,-3.3584,-3.3637,-3.3669,-3.376,-3.3804,-3.3861,-3.3861,-3.3921,-3.3964,-3.399,-3.4064,-3.4102,-3.4167,-3.4244,-3.428,-3.4275,-3.4388,-3.4361,-3.4363,-3.4367,-3.4411,-3.4418,-3.4425,-3.4338,-3.4337,-3.4337,0,0,-3.3631,-3.3677,-3.3733,-3.3778,-3.3846,-3.3881,-3.3895,-3.3966,-3.3992,-3.4067,-3.4089,-3.4141,-3.4242,-3.4287,-3.4323,-3.439,-3.4402,-3.4408,-3.4426,-3.4469,-3.4475,-3.448,-3.4503,-3.4511,-3.4414,-3.4414,-3.4414,0,-3.3634,-3.3721,-3.3761,-3.382,-3.3859,-3.3887,-3.3945,-3.3987,-3.4069,-3.4096,-3.409,-3.4219,-3.4264,-3.4352,-3.4369,-3.4397,-3.4414,-3.4398,-3.4471,-3.4477,-3.4483,-3.4505,-3.4514,-3.4414,-3.4414,-3.4414,-3.4414,0,-3.3722,-3.3782,-3.3819,-3.3899,-3.3943,-3.4001,-3.405,-3.409,-3.4111,-3.4147,-3.4224,-3.428,-3.435,-3.4373,-3.4394,-3.4465,-3.446,-3.4462,-3.445,-3.449,-3.4511,-3.452,-3.4414,-3.4414,-3.4414,-3.4414,0,0,-3.3756,-3.3859,-3.3872,-3.3909,-3.3986,-3.4033,-3.4094,-3.4163,-3.4196,-3.4253,-3.4304,-3.4391,-3.4393,-3.4435,-3.4461,-3.4499,-3.4547,-3.4496,-3.4499,-3.4503,-3.4628,-3.4625,-3.4634,-3.4557,-3.4558,-3.456,-3.4622,0,-3.3811,-3.3919,-3.3958,-3.4047,-3.4103,-3.4131,-3.4184,-3.4237,-3.4273,-3.4326,-3.4366,-3.4426,-3.4426,-3.4451,-3.4489,-3.4533,-3.4572,-3.4529,-3.4604,-3.4606,-3.4585,-3.4645,-3.4642,-3.4698,-3.4631,-3.4632,-3.4634,0,-3.3889,-3.3948,-3.4042,-3.4113,-3.4138,-3.4185,-3.4252,-3.4302,-3.4364,-3.4388,-3.4435,-3.4459,-3.4524,-3.4509,-3.4599,-3.4569,-3.4602,-3.4629,-3.4632,-3.4638,-3.4621,-3.4652,-3.4716,-3.4724,-3.4647,-3.4646,-3.4645,0,-3.3904,-3.4006,-3.4076,-3.4107,-3.4192,-3.4224,-3.4261,-3.4322,-3.4361,-3.442,-3.4446,-3.4512,-3.4548,-3.4598,-3.464,-3.4626,-3.4726,-3.4715,-3.4747,-3.4746,-3.4764,-3.4762,-3.4833,-3.4789,-3.4789,-3.4789,-3.4788,0,-3.396,-3.4017,-3.4084,-3.4127,-3.4191,-3.4236,-3.4298,-3.4337,-3.4391,-3.4442,-3.4471,-3.4519,-3.4572,-3.4626,-3.4659,-3.4728,-3.4745,-3.4765,-3.4773,-3.4762,-3.4759,-3.4783,-3.4779,-3.4791,-3.479,-3.479,-3.479,0,-3.3986,-3.4034,-3.4111,-3.4186,-3.4207,-3.4251,-3.4315,-3.4358,-3.4396,-3.446,-3.4478,-3.4538,-3.4604,-3.4651,-3.4736,-3.4759,-3.4832,-3.4841,-3.4811,-3.4815,-3.4843,-3.4839,-3.4931,-3.4945,-3.4892,-3.4892,-3.4893,0,-3.4018,-3.4062,-3.4142,-3.4178,-3.4216,-3.4274,-3.4315,-3.4361,-3.4402,-3.4477,-3.451,-3.4579,-3.4635,-3.4739,-3.479,-3.4856,-3.4865,-3.4893,-3.4875,-3.4862,-3.4864,-3.486,-3.4865,-3.4894,-3.4895,-3.4895,-3.4895,0,-3.4069,-3.4091,-3.4148,-3.4215,-3.4262,-3.4317,-3.4371,-3.44,-3.4456,-3.4501,-3.4569,-3.4613,-3.47,-3.4767,-3.4838,-3.4876,-3.4895,-3.4901,-3.4911,-3.4899,-3.488,-3.489,-3.4816,-3.4898,-3.4898,-3.4897,-3.4897,-3.4897,-3.4098,-3.4139,-3.4202,-3.4265,-3.4311,-3.4362,-3.4406,-3.4451,-3.4508,-3.4582,-3.4607,-3.4677,-3.4739,-3.4836,-3.4876,-3.4931,-3.493,-3.4946,-3.4949,-3.4952,-3.4951,-3.4872,-3.4945,-3.4945,-3.4945,-3.4945,-3.4945,0,-3.415,-3.4192,-3.425,-3.4326,-3.4376,-3.4391,-3.4453,-3.4493,-3.4555,-3.4611,-3.4667,-3.4745,-3.4811,-3.4868,-3.4936,-3.497,-3.498,-3.4986,-3.4983,-3.4992,-3.4949,-3.4932,-3.4976,-3.4976,-3.4976,-3.4976,-3.4976,-3.4976,-3.4182,-3.4252,-3.4281,-3.4375,-3.4417,-3.4486,-3.452,-3.4567,-3.4612,-3.4698,-3.4753,-3.479,-3.4847,-3.492,-3.4981,-3.4997,-3.502,-3.5023,-3.504,-3.4999,-3.4995,-3.4991,-3.4975,-3.5028,-3.5028,-3.5079,-3.5079,-3.508]},{"header":{"parameterUnit":"m.s-1","parameterCategory":1,"la1":30.2991,"la2":30.254,"lo1":-89.0895,"lo2":-89.0444,"dy":0.0017,"dx":0.0017,"nx":28,"ny":28,"refTime":"2025-01-29T09:00:00:Z","depth":0,"parameterNumber":3,"parameterNumberName":"V-component_of_WINDS"},"data":[0,0,0,0,0,0,0,0,0,0,0,0,0,0,0,0,0,0,0,0,0,0,0,0,0,0,0,0,0,0,0,0,0,0,0,0,0,0,0,0,0,0,0,0,0,0,0,0,0,0,0,0,0,0,0,0,0,0,3.4178,3.4179,0,3.4272,3.4273,3.4274,3.4318,3.4318,3.4318,3.4318,3.4414,3.4416,3.4419,0,0,0,0,0,0,0,0,0,0,0,0,0,3.4038,3.404,3.4178,3.4179,3.418,3.4272,3.4273,3.4274,3.4318,3.4318,3.4318,3.4318,3.4413,3.4416,3.4419,0,0,0,0,0,0,0,0,0,0,0,0,0,3.4112,3.4041,3.4178,3.4213,3.4217,3.4272,3.4273,3.4275,3.4318,3.4318,3.4318,3.4318,3.4412,3.4416,3.442,3.4445,0,0,3.4431,3.4433,0,0,0,0,0,0,0,0,3.4108,3.4117,3.4207,3.4211,3.4215,3.4283,3.4259,3.4332,3.4318,3.428,3.4318,3.4318,3.437,3.4378,3.4396,3.445,3.4454,3.4432,3.4434,3.4436,3.4437,0,0,0,0,0,0,0,3.4103,3.4113,3.4215,3.4208,3.4213,3.4225,3.4235,3.4273,3.4324,3.4283,3.4287,3.4297,3.4373,3.4392,3.4398,3.4455,3.4432,3.4435,3.4438,3.4439,3.454,3.454,0,0,0,0,0,0,3.4092,3.4109,3.4212,3.4218,3.416,3.4228,3.4239,3.4262,3.4324,3.4334,3.4297,3.4299,3.4385,3.4393,3.4402,3.4439,3.4436,3.444,3.4442,3.4539,3.454,3.454,0,0,0,0,0,0,3.4088,3.41,3.4208,3.4164,3.4179,3.423,3.4255,3.4263,3.4282,3.4335,3.4344,3.4307,3.4385,3.4396,3.4435,3.4443,3.4441,3.4445,3.4539,3.4539,3.454,3.4511,0,0,0,0,0,0,3.4084,3.4099,3.4109,3.4164,3.4181,3.4239,3.4255,3.4265,3.4289,3.4292,3.4346,3.4355,3.4386,3.4429,3.4439,3.4448,3.4448,3.4539,3.4539,3.454,3.4512,3.4511,3.451,0,0,0,0,0,3.4079,3.4096,3.4109,3.4121,3.4194,3.424,3.425,3.4285,3.4289,3.43,3.4335,3.4354,3.444,3.4433,3.4444,3.4454,3.4538,3.4539,3.454,3.4512,3.4511,3.451,0,0,0,0,0,0,3.4039,3.4104,3.4119,3.4154,3.4191,3.4247,3.4262,3.4282,3.4318,3.4319,3.4362,3.4373,3.4409,3.4436,3.4426,3.4485,3.4491,3.4494,3.4466,3.4465,3.4464,3.4458,3.4451,0,0,0,0,0,3.4034,3.4065,3.412,3.4146,3.4164,3.421,3.4231,3.4255,3.4295,3.4311,3.4348,3.4386,3.4423,3.4445,3.4481,3.4516,3.453,3.4529,3.4528,3.4527,3.4529,3.4553,3.4554,3.4543,3.4543,3.4543,0,0,3.4024,3.4064,3.4081,3.4139,3.4171,3.4204,3.4222,3.4255,3.428,3.4316,3.4356,3.4384,3.443,3.4468,3.4486,3.4491,3.4535,3.4528,3.4526,3.453,3.4554,3.4555,3.4556,3.4543,3.4543,3.4543,0,0,3.4024,3.4056,3.4083,3.4115,3.4163,3.4194,3.42,3.4254,3.4275,3.4315,3.4344,3.4374,3.4435,3.4467,3.4492,3.4507,3.4527,3.4517,3.4512,3.4535,3.4536,3.4537,3.4545,3.4547,3.4519,3.4519,3.4519,0,3.4006,3.4056,3.4093,3.4126,3.4152,3.4187,3.4215,3.4244,3.4302,3.4319,3.4324,3.4403,3.4436,3.4483,3.4487,3.4505,3.4515,3.4512,3.4533,3.4534,3.4536,3.4544,3.4546,3.4518,3.4518,3.4518,3.4519,0,3.4033,3.4067,3.4083,3.4139,3.4167,3.4196,3.424,3.4264,3.4286,3.4317,3.436,3.4401,3.4447,3.446,3.4481,3.4512,3.4513,3.4524,3.4532,3.4535,3.4543,3.4547,3.4516,3.4517,3.4517,3.4517,0,0,3.4008,3.4087,3.4092,3.412,3.4177,3.4205,3.4237,3.4284,3.4304,3.4343,3.4373,3.4425,3.4437,3.4464,3.449,3.451,3.4523,3.4519,3.4521,3.452,3.4562,3.4554,3.4557,3.4536,3.4537,3.4537,3.4559,0,3.4017,3.4077,3.4114,3.416,3.4194,3.4229,3.4258,3.4297,3.4327,3.436,3.4394,3.4431,3.4442,3.446,3.4481,3.4517,3.4532,3.4515,3.4566,3.4567,3.4555,3.4561,3.4553,3.4571,3.4562,3.4563,3.4563,0,3.4035,3.4075,3.4125,3.4182,3.4197,3.4222,3.427,3.4301,3.4347,3.4368,3.44,3.4427,3.4464,3.4468,3.4522,3.451,3.4533,3.4554,3.4555,3.4563,3.4566,3.457,3.4577,3.4581,3.4568,3.4568,3.4567,0,3.4015,3.4081,3.4121,3.4143,3.4209,3.4227,3.4255,3.4301,3.4328,3.4369,3.4387,3.4431,3.4456,3.4491,3.4529,3.4528,3.458,3.4586,3.46,3.4599,3.461,3.4609,3.4622,3.4621,3.4621,3.4621,3.4621,0,3.4023,3.4052,3.4113,3.4137,3.4173,3.4215,3.4249,3.428,3.4321,3.4353,3.4385,3.4415,3.4463,3.4499,3.4529,3.4571,3.4581,3.46,3.4608,3.4598,3.4596,3.4615,3.4615,3.4622,3.4622,3.4622,3.4622,0,3.4006,3.4048,3.4094,3.4154,3.417,3.4193,3.4245,3.4271,3.4304,3.4344,3.4356,3.4407,3.4451,3.4493,3.4551,3.4572,3.4615,3.4624,3.4599,3.4604,3.4616,3.4615,3.4643,3.465,3.4642,3.4642,3.4642,0,3.4009,3.4033,3.4096,3.4121,3.4149,3.4187,3.4215,3.4258,3.4286,3.4342,3.4362,3.4409,3.4449,3.4518,3.4561,3.4606,3.4618,3.4625,3.4625,3.4616,3.4621,3.462,3.4624,3.4624,3.4624,3.4624,3.4624,0,3.4009,3.403,3.4069,3.4117,3.415,3.4189,3.4229,3.4247,3.4299,3.4329,3.4375,3.4406,3.4468,3.4515,3.4566,3.4596,3.462,3.4624,3.463,3.4621,3.4606,3.4617,3.4599,3.4623,3.4623,3.4623,3.4623,3.4623,3.4004,3.4029,3.4078,3.4122,3.4157,3.4195,3.4223,3.4261,3.43,3.4354,3.4377,3.4425,3.4473,3.4545,3.4575,3.4613,3.4619,3.4626,3.4629,3.463,3.463,3.4599,3.4622,3.4623,3.4623,3.4623,3.4623,0,3.4009,3.4043,3.4083,3.414,3.4175,3.4194,3.4241,3.4269,3.4311,3.4354,3.4393,3.4448,3.4495,3.4542,3.4592,3.4614,3.4626,3.4625,3.4625,3.4632,3.4621,3.4612,3.4615,3.4615,3.4615,3.4615,3.4615,3.4615,3.4015,3.4058,3.4085,3.4147,3.4182,3.4229,3.4255,3.4291,3.4326,3.4386,3.4425,3.4456,3.4502,3.4556,3.46,3.4613,3.4631,3.4627,3.4644,3.4632,3.4633,3.4633,3.4625,3.463,3.463,3.4652,3.4652,3.4652]}]]